Location: Unspecified
(40.7945°N, 111.1337°W)
Time: 11:45:22
(UTC-06:00)

Resurs 1-4 Rocket - Pass Details

Date: 26 March 2019
Orbit: 800 x 813 km, 98.6° (Epoch: 20 October)

Event Time Altitude Azimuth Distance (km) Brightness Sun altitude
Rises 04:15:06 0° 1° (N) 3,331 5.8 -33.0°
Reaches altitude 10° 04:17:45 10° 350° (N) 2,393 4.8 -32.6°
Enters shadow 04:19:12 17° 338° (NNW) 1,955 4.2 -32.4°
